Tracking 19847 objects as of 18-Sep-2019
HD Live streaming from Space Station
objects crossing your sky now

SKYNET 2B

Track SKYNET 2B now!
SKYNET 2B is classified as:


NORAD ID: 7547
Int'l Code: 1974-094A
Perigee: 35,791.2 km
Apogee: 35,802.5 km
Inclination: 9.5 °
Period: 1,436.3 minutes
Semi major axis: 42167 km
RCS: 3.166 m2 (large)
Launch date: November 23, 1974
Source: United Kingdom (UK)
Launch site: AIR FORCE EASTERN TEST RANGE (AFETR)
aabbcc
Your satellite tracking list
Your tracking list is empty




NASA's NSSDC Master Catalog

Two Line Element Set (TLE):
1  7547U 74094A   19259.50398823 -.00000291 +00000-0 +00000-0 0  9994
2  7547 009.4828 308.1001 0001346 092.5851 276.6226 01.00260641100049
Source of the keplerian elements: AFSPC